User: anonymous   Login
Location: Pilipovskiye Korichintsy
(49.1833°N, 27.4667°E)
Time: 19:02:02
(UTC+00:00)
Language:

ISS - Orbit

View from above orbital plane
View from above orbital plane
View from above satellite
View from above satellite

Ground track
Ground track

The orbit data is extracted from the following two-line orbital elements,

1 25544U 98067A   20263.90558965  .00016717  00000-0  10270-3 0  9063
2 25544  51.6414 239.7642 0000477  64.1557 295.9642 15.48933379  6692
Epoch (UTC): 19 September 2020 21:44:02
Eccentricity: 0.0000477
inclination: 51.6414°
perigee height: 419 km
apogee height: 420 km
right ascension of ascending node: 239.7642°
argument of perigee: 64.1557°
revolutions per day: 15.48933379
mean anomaly at epoch: 295.9642°
orbit number at epoch: 669

The dashed part of the orbit path shows where the satellite is in the earth's shadow,  

DLR